GW3602 Weather Reports


Display with metric or nautical units.
time (UTC)temp
F
wind
direction
speed
MPH
gust
MPH
rain 1hr
in
rain 24hr
in
rain mn
in
humidity
%
barometer
mb
20240225204506 46 115 3.0 11.0 0.00 0.00 0.00 44 1010.8
20240225203013 46 153 2.0 13.0 0.00 0.00 0.00 45 1011.0
20240225201509 45 95 4.0 11.0 0.00 0.00 0.00 45 1011.0
20240225200011 44 99 4.0 11.0 0.00 0.00 0.00 45 1011.3
20240225194506 44 158 3.0 14.0 0.00 0.00 0.00 45 1011.7
20240225193004 44 118 3.0 12.0 0.00 0.00 0.00 45 1011.9
20240225191517 43 218 4.0 12.0 0.00 0.00 0.00 45 1012.1
20240225190011 43 205 4.0 12.0 0.00 0.00 0.00 45 1012.5
20240225184513 43 325 3.0 10.0 0.00 0.00 0.00 46 1012.8
20240225183007 42 221 5.0 15.0 0.00 0.00 0.00 45 1012.7
20240225181509 41 97 5.0 17.0 0.00 0.00 0.00 47 1013.1
20240225180011 41 226 3.0 11.0 0.00 0.00 0.00 46 1013.6
20240225174512 40 169 5.0 12.0 0.00 0.00 0.00 48 1014.0
20240225173015 40 195 4.0 13.0 0.00 0.00 0.00 49 1014.0
20240225171507 39 156 3.0 11.0 0.00 0.00 0.00 51 1013.9
20240225170009 39 178 3.0 10.0 0.00 0.00 0.00 53 1014.5
20240225164511 37 124 3.0 13.0 0.00 0.00 0.00 54 1014.3
20240225163014 36 216 5.0 14.0 0.00 0.00 0.00 54 1014.6
20240225161508 36 134 4.0 12.0 0.00 0.00 0.00 56 1015.0
20240225160008 35 164 3.0 11.0 0.00 0.00 0.00 56 1014.8
20240225154513 35 199 2.0 10.0 0.00 0.00 0.00 56 1015.2
20240225153024 34 79 3.0 9.0 0.00 0.00 0.00 58 1015.7
20240225151516 33 237 3.0 10.0 0.00 0.00 0.00 58 1015.9
20240225150005 32 164 3.0 7.0 0.00 0.00 0.00 59 1016.0
20240225144510 31 77 4.0 9.0 0.00 0.00 0.00 60 1016.2
20240225143021 30 117 1.0 9.0 0.00 0.00 0.00 62 1016.4
20240225141511 29 211 2.0 9.0 0.00 0.00 0.00 62 1016.6
20240225140006 28 211 2.0 6.0 0.00 0.00 0.00 64 1016.7
20240225134510 27 176 2.0 6.0 0.00 0.00 0.00 65 1016.9
20240225133009 26 210 3.0 8.0 0.00 0.00 0.00 66 1016.7
20240225131510 25 178 1.0 5.0 0.00 0.00 0.00 68 1016.7
20240225130011 23 157 1.0 5.0 0.00 0.00 0.00 71 1016.6
20240225124506 22 207 2.0 6.0 0.00 0.00 0.00 71 1016.7
20240225123006 22 142 3.0 10.0 0.00 0.00 0.00 70 1016.7
20240225121510 22 233 1.0 5.0 0.00 0.00 0.00 70 1016.6
20240225120009 22 184 0.0 7.0 0.00 0.00 0.00 70 1016.5
20240225114512 22 273 1.0 7.0 0.00 0.00 0.00 70 1016.6
20240225113008 22 247 1.0 6.0 0.00 0.00 0.00 70 1016.8
20240225111510 22 127 1.0 4.0 0.00 0.00 0.00 71 1016.6
20240225110010 22 95 0.0 6.0 0.00 0.00 0.00 71 1016.7
20240225104532 22 146 2.0 6.0 0.00 0.00 0.00 71 1017.0
20240225103012 21 137 2.0 5.0 0.00 0.00 0.00 71 1017.0
20240225101504 21 240 2.0 7.0 0.00 0.00 0.00 71 1017.2
20240225100008 20 233 1.0 5.0 0.00 0.00 0.00 71 1017.1
20240225094509 20 179 1.0 6.0 0.00 0.00 0.00 70 1017.3
20240225093010 19 109 0.0 6.0 0.00 0.00 0.00 71 1017.3
20240225091513 19 160 1.0 3.0 0.00 0.00 0.00 71 1017.3
20240225090007 19 245 1.0 4.0 0.00 0.00 0.00 71 1017.3
20240225084509 19 124 0.0 3.0 0.00 0.00 0.00 71 1017.5
20240225083010 18 130 0.0 1.0 0.00 0.00 0.00 72 1017.6
20240225081512 18 247 0.0 2.0 0.00 0.00 0.00 72 1017.5
20240225080012 18 152 0.0 2.0 0.00 0.00 0.00 72 1017.5
20240225074507 18 124 0.0 2.0 0.00 0.00 0.00 72 1017.6
20240225073010 18 250 0.0 1.0 0.00 0.00 0.00 71 1017.9
20240225071511 18 116 0.0 4.0 0.00 0.00 0.00 71 1017.4
20240225070012 18 136 0.0 1.0 0.00 0.00 0.00 71 1017.5
20240225064509 18 200 0.0 3.0 0.00 0.00 0.00 71 1018.1
20240225063008 17 236 0.0 3.0 0.00 0.00 0.00 71 1018.2
20240225061509 17 169 0.0 1.0 0.00 0.00 0.00 70 1017.8
20240225060010 17 110 0.0 2.0 0.00 0.00 0.00 69 1017.7
20240225054536 17 143 0.0 1.0 0.00 0.00 0.00 70 1018.0
20240225053011 17 144 0.0 0.0 0.00 0.00 0.00 70 1018.1
20240225051513 17 263 0.0 1.0 0.00 0.00 0.00 70 1017.9
20240225050010 17 144 0.0 1.0 0.00 0.00 0.00 70 1017.8
20240225044513 17 204 0.0 2.0 0.00 0.00 0.00 70 1018.0
20240225043009 17 158 0.0 0.0 0.00 0.00 0.00 71 1018.0
20240225041505 17 175 0.0 0.0 0.00 0.00 0.00 71 1018.0
20240225040011 16 188 0.0 1.0 0.00 0.00 0.00 71 1018.1
20240225034510 16 110 0.0 1.0 0.00 0.00 0.00 70 1018.2
20240225033019 17 110 0.0 1.0 0.00 0.00 0.00 68 1018.1
20240225031515 17 110 0.0 1.0 0.00 0.00 0.00 68 1018.1
20240225030020 18 109 0.0 1.0 0.00 0.00 0.00 68 1018.0
20240225024509 17 280 0.0 1.0 0.00 0.00 0.00 67 1018.3
20240225023011 17 281 0.0 1.0 0.00 0.00 0.00 67 1018.3
20240225021509 17 285 0.0 1.0 0.00 0.00 0.00 67 1018.4
20240225020011 17 288 0.0 1.0 0.00 0.00 0.00 65 1018.4
20240225014506 18 290 0.0 1.0 0.00 0.00 0.00 63 1018.3
20240225013005 18 290 0.0 1.0 0.00 0.00 0.00 62 1018.2
20240225011511 18 290 0.0 0.0 0.00 0.00 0.00 63 1018.0
20240225010009 18 290 0.0 1.0 0.00 0.00 0.00 62 1018.1
20240225004512 19 290 0.0 0.0 0.00 0.00 0.00 60 1018.1
20240225003008 19 290 0.0 0.0 0.00 0.00 0.00 60 1018.0
20240225001506 20 290 0.0 0.0 0.00 0.00 0.00 57 1017.8
20240225000012 21 297 0.0 1.0 0.00 0.00 0.00 57 1017.7
20240224234509 21 300 0.0 2.0 0.00 0.00 0.00 56 1017.4
20240224233011 22 284 1.0 4.0 0.00 0.00 0.00 55 1017.3
20240224231507 22 306 1.0 4.0 0.00 0.00 0.00 54 1017.0
20240224230005 23 288 2.0 5.0 0.00 0.00 0.00 54 1017.1
20240224224515 23 320 2.0 5.0 0.00 0.00 0.00 53 1016.9
20240224223014 24 2 2.0 5.0 0.00 0.00 0.00 53 1016.6
20240224221512 24 36 0.0 6.0 0.00 0.00 0.00 52 1016.4
20240224220005 24 264 4.0 9.0 0.00 0.00 0.00 50 1016.4
20240224214507 25 316 3.0 6.0 0.00 0.00 0.00 49 1016.1
20240224213008 26 295 3.0 7.0 0.00 0.00 0.00 48 1016.1
20240224211513 26 309 4.0 7.0 0.00 0.00 0.00 50 1015.9
20240224210012 26 321 5.0 9.0 0.00 0.00 0.00 48 1015.6